Time,TemperatureF,DewpointF,PressureIn,WindDirection,WindDirectionDegrees,WindSpeedMPH,WindSpeedGustMPH,Humidity,HourlyPrecipIn,Conditions,Clouds,dailyrainin,SoftwareType,DateUTC
2013-04-14 00:00:00,44.5,40.3,29.98,SW,221,3.0,5.0,85,0.00,,---,0.05,VWS V14.01,2013-04-14 04:00:00,
2013-04-14 00:05:00,44.3,40.4,29.98,SW,221,2.0,3.0,86,0.00,,---,0.00,VWS V14.01,2013-04-14 04:05:00,
2013-04-14 00:10:00,44.2,40.0,29.98,SW,221,4.0,5.0,85,0.00,,---,0.00,VWS V14.01,2013-04-14 04:10:00,
2013-04-14 00:15:00,44.1,39.9,29.98,SW,220,4.0,4.0,85,0.00,,---,0.00,VWS V14.01,2013-04-14 04:15:00,
2013-04-14 00:20:00,44.2,40.0,29.98,SW,221,3.0,3.0,85,0.00,,---,0.00,VWS V14.01,2013-04-14 04:20:00,
2013-04-14 00:25:00,44.3,40.1,29.98,SW,221,4.0,4.0,85,0.00,,---,0.00,VWS V14.01,2013-04-14 04:25:00,
2013-04-14 00:30:00,44.3,39.8,29.98,SW,220,3.0,4.0,84,0.00,,---,0.00,VWS V14.01,2013-04-14 04:30:00,
2013-04-14 00:35:00,44.2,39.7,29.98,SW,221,3.0,3.0,84,0.00,,---,0.00,VWS V14.01,2013-04-14 04:35:00,
2013-04-14 00:40:00,44.1,39.9,29.98,SW,221,4.0,4.0,85,0.00,,---,0.00,VWS V14.01,2013-04-14 04:40:00,
2013-04-14 00:45:00,44.0,39.8,29.98,SW,221,4.0,5.0,85,0.00,,---,0.00,VWS V14.01,2013-04-14 04:45:00,
2013-04-14 00:50:00,44.1,39.9,29.98,WSW,237,4.0,5.0,85,0.00,,---,0.00,VWS V14.01,2013-04-14 04:50:00,
2013-04-14 00:55:00,44.1,40.2,29.97,SW,236,5.0,6.0,86,0.00,,---,0.00,VWS V14.01,2013-04-14 04:55:00,
2013-04-14 01:00:00,44.2,40.6,29.97,SW,235,3.0,3.0,87,0.00,,---,0.00,VWS V14.01,2013-04-14 05:00:00,
2013-04-14 01:05:00,44.2,40.6,29.97,SW,230,2.0,3.0,87,0.00,,---,0.00,VWS V14.01,2013-04-14 05:05:00,
2013-04-14 01:10:00,44.2,41.2,29.97,SW,223,4.0,4.0,89,0.00,,---,0.00,VWS V14.01,2013-04-14 05:10:00,
2013-04-14 01:15:00,44.1,41.4,29.97,SSW,213,2.0,4.0,90,0.00,,---,0.00,VWS V14.01,2013-04-14 05:15:00,
2013-04-14 01:20:00,44.0,41.3,29.97,SSW,199,4.0,6.0,90,0.00,,---,0.00,VWS V14.01,2013-04-14 05:20:00,
2013-04-14 01:25:00,44.0,41.5,29.97,SW,224,6.0,6.0,91,0.00,,---,0.00,VWS V14.01,2013-04-14 05:25:00,
2013-04-14 01:30:00,43.9,41.5,29.97,SW,222,5.0,11.0,91,0.00,,---,0.00,VWS V14.01,2013-04-14 05:30:00,
2013-04-14 01:35:00,43.9,41.5,29.97,SW,220,7.0,9.0,91,0.00,,---,0.00,VWS V14.01,2013-04-14 05:35:00,
2013-04-14 01:40:00,43.9,41.5,29.97,SW,233,9.0,9.0,91,0.00,,---,0.00,VWS V14.01,2013-04-14 05:40:00,
2013-04-14 01:45:00,43.9,41.5,29.98,SW,230,7.0,11.0,91,0.00,,---,0.00,VWS V14.01,2013-04-14 05:45:00,
2013-04-14 01:50:00,43.9,41.5,29.97,SW,225,8.0,10.0,91,0.00,,---,0.00,VWS V14.01,2013-04-14 05:50:00,
2013-04-14 01:55:00,44.0,41.3,29.98,SW,222,12.0,16.0,90,0.00,,---,0.00,VWS V14.01,2013-04-14 05:55:00,
2013-04-14 02:00:00,44.0,41.3,29.97,SW,233,10.0,10.0,90,0.00,,---,0.00,VWS V14.01,2013-04-14 06:00:00,
2013-04-14 02:05:00,44.0,41.3,29.97,SW,220,9.0,13.0,90,0.00,,---,0.00,VWS V14.01,2013-04-14 06:05:00,
2013-04-14 02:10:00,43.9,41.5,29.97,SW,219,1.0,2.0,91,0.00,,---,0.00,VWS V14.01,2013-04-14 06:10:00,
2013-04-14 02:15:00,43.8,41.3,29.97,SW,226,3.0,9.0,91,0.00,,---,0.00,VWS V14.01,2013-04-14 06:15:00,
2013-04-14 02:20:00,43.8,41.3,29.97,WSW,241,12.0,13.0,91,0.00,,---,0.00,VWS V14.01,2013-04-14 06:20:00,
2013-04-14 02:25:00,43.9,41.2,29.97,SW,230,11.0,12.0,90,0.00,,---,0.00,VWS V14.01,2013-04-14 06:25:00,
2013-04-14 02:30:00,43.9,41.2,29.97,SW,220,4.0,8.0,90,0.00,,---,0.00,VWS V14.01,2013-04-14 06:30:00,
2013-04-14 02:35:00,43.8,41.1,29.97,SW,228,7.0,12.0,90,0.00,,---,0.00,VWS V14.01,2013-04-14 06:35:00,
2013-04-14 02:40:00,43.8,41.1,29.97,SW,226,6.0,11.0,90,0.00,,---,0.00,VWS V14.01,2013-04-14 06:40:00,
2013-04-14 02:45:00,43.8,41.1,29.97,SW,216,6.0,12.0,90,0.00,,---,0.00,VWS V14.01,2013-04-14 06:45:00,
2013-04-14 02:50:00,43.8,41.1,29.97,SW,227,10.0,10.0,90,0.00,,---,0.00,VWS V14.01,2013-04-14 06:50:00,
2013-04-14 02:55:00,43.8,41.1,29.97,SW,230,6.0,7.0,90,0.00,,---,0.00,VWS V14.01,2013-04-14 06:55:00,
2013-04-14 03:00:00,43.7,41.0,29.97,SW,229,9.0,13.0,90,0.00,,---,0.00,VWS V14.01,2013-04-14 07:00:00,
2013-04-14 03:05:00,43.6,41.2,29.97,SW,235,4.0,12.0,91,0.00,,---,0.00,VWS V14.01,2013-04-14 07:05:00,
2013-04-14 03:10:00,43.6,41.2,29.97,SW,233,15.0,19.0,91,0.00,,---,0.00,VWS V14.01,2013-04-14 07:10:00,
2013-04-14 03:15:00,43.6,41.2,29.97,SW,227,10.0,16.0,91,0.00,,---,0.00,VWS V14.01,2013-04-14 07:15:00,
2013-04-14 03:20:00,43.5,41.0,29.97,SW,233,15.0,16.0,91,0.00,,---,0.00,VWS V14.01,2013-04-14 07:20:00,
2013-04-14 03:25:00,43.4,41.0,29.97,WSW,244,17.0,17.0,91,0.00,,---,0.00,VWS V14.01,2013-04-14 07:25:00,
2013-04-14 03:30:00,43.4,41.0,29.97,SW,233,12.0,12.0,91,0.00,,---,0.00,VWS V14.01,2013-04-14 07:30:00,
2013-04-14 03:35:00,43.4,41.0,29.97,WSW,252,7.0,13.0,91,0.00,,---,0.00,VWS V14.01,2013-04-14 07:35:00,
2013-04-14 03:40:00,43.4,40.7,29.97,SW,223,11.0,14.0,90,0.00,,---,0.00,VWS V14.01,2013-04-14 07:40:00,
2013-04-14 03:45:00,43.4,40.7,29.97,WSW,239,4.0,9.0,90,0.00,,---,0.00,VWS V14.01,2013-04-14 07:45:00,
2013-04-14 03:50:00,43.5,40.8,29.97,WSW,242,10.0,10.0,90,0.00,,---,0.00,VWS V14.01,2013-04-14 07:50:00,
2013-04-14 03:55:00,43.5,40.8,29.97,WSW,251,3.0,11.0,90,0.00,,---,0.00,VWS V14.01,2013-04-14 07:55:00,
2013-04-14 04:00:00,43.5,40.8,29.97,WSW,247,4.0,6.0,90,0.00,,---,0.00,VWS V14.01,2013-04-14 08:00:00,
2013-04-14 04:05:00,43.5,40.8,29.98,WSW,246,5.0,5.0,90,0.00,,---,0.00,VWS V14.01,2013-04-14 08:05:00,
2013-04-14 04:10:00,43.5,40.8,29.97,WSW,246,0.0,2.0,90,0.00,,---,0.00,VWS V14.01,2013-04-14 08:10:00,
2013-04-14 04:15:00,43.5,40.8,29.98,WSW,247,4.0,5.0,90,0.00,,---,0.00,VWS V14.01,2013-04-14 08:15:00,
2013-04-14 04:20:00,43.5,40.8,29.97,WSW,250,0.0,3.0,90,0.00,,---,0.00,VWS V14.01,2013-04-14 08:20:00,
2013-04-14 04:25:00,43.4,40.7,29.97,WSW,249,3.0,3.0,90,0.00,,---,0.00,VWS V14.01,2013-04-14 08:25:00,
2013-04-14 04:30:00,43.4,40.7,29.98,WSW,249,2.0,4.0,90,0.00,,---,0.00,VWS V14.01,2013-04-14 08:30:00,
2013-04-14 04:35:00,43.4,40.7,29.98,WSW,249,4.0,6.0,90,0.00,,---,0.00,VWS V14.01,2013-04-14 08:35:00,
2013-04-14 04:40:00,43.4,40.7,29.98,WSW,249,1.0,2.0,90,0.00,,---,0.00,VWS V14.01,2013-04-14 08:40:00,
2013-04-14 04:45:00,43.4,40.7,29.98,WSW,249,3.0,3.0,90,0.00,,---,0.00,VWS V14.01,2013-04-14 08:45:00,
2013-04-14 04:50:00,43.3,40.6,29.98,WSW,249,3.0,3.0,90,0.00,,---,0.00,VWS V14.01,2013-04-14 08:50:00,
2013-04-14 04:55:00,43.3,40.3,29.98,WSW,249,1.0,2.0,89,0.00,,---,0.00,VWS V14.01,2013-04-14 08:55:00,
2013-04-14 05:00:00,43.3,40.3,29.98,WSW,249,3.0,3.0,89,0.00,,---,0.00,VWS V14.01,2013-04-14 09:00:00,
2013-04-14 05:05:00,43.4,40.7,29.98,WSW,249,7.0,7.0,90,0.00,,---,0.00,VWS V14.01,2013-04-14 09:05:00,
2013-04-14 05:10:00,43.4,40.4,29.98,WSW,249,3.0,6.0,89,0.00,,---,0.00,VWS V14.01,2013-04-14 09:10:00,
2013-04-14 05:15:00,43.4,40.4,29.98,WSW,249,4.0,6.0,89,0.00,,---,0.00,VWS V14.01,2013-04-14 09:15:00,
2013-04-14 05:20:00,43.5,40.5,29.98,WSW,249,4.0,4.0,89,0.00,,---,0.00,VWS V14.01,2013-04-14 09:20:00,
2013-04-14 05:25:00,43.6,40.6,29.98,WSW,249,3.0,6.0,89,0.00,,---,0.00,VWS V14.01,2013-04-14 09:25:00,
2013-04-14 05:30:00,43.6,40.6,29.98,WSW,249,4.0,6.0,89,0.00,,---,0.00,VWS V14.01,2013-04-14 09:30:00,
2013-04-14 05:35:00,43.7,40.7,29.98,WSW,248,6.0,8.0,89,0.00,,---,0.00,VWS V14.01,2013-04-14 09:35:00,
2013-04-14 05:40:00,43.8,40.8,29.98,WSW,241,5.0,9.0,89,0.00,,---,0.00,VWS V14.01,2013-04-14 09:40:00,
2013-04-14 05:45:00,44.0,40.7,29.98,WSW,238,10.0,10.0,88,0.00,,---,0.00,VWS V14.01,2013-04-14 09:45:00,
2013-04-14 05:50:00,44.1,40.5,29.98,SW,235,9.0,9.0,87,0.00,,---,0.00,VWS V14.01,2013-04-14 09:50:00,
2013-04-14 05:55:00,44.2,40.6,29.98,SW,235,5.0,5.0,87,0.00,,---,0.00,VWS V14.01,2013-04-14 09:55:00,
2013-04-14 06:00:00,44.2,40.3,29.98,SW,236,4.0,7.0,86,0.00,,---,0.00,VWS V14.01,2013-04-14 10:00:00,
2013-04-14 06:05:00,44.3,40.4,29.98,WSW,240,8.0,9.0,86,0.00,,---,0.00,VWS V14.01,2013-04-14 10:05:00,
2013-04-14 06:10:00,44.4,40.5,29.98,WSW,238,5.0,8.0,86,0.00,,---,0.00,VWS V14.01,2013-04-14 10:10:00,
2013-04-14 06:15:00,44.4,40.5,29.99,WSW,238,11.0,11.0,86,0.00,,---,0.00,VWS V14.01,2013-04-14 10:15:00,
2013-04-14 06:20:00,44.5,40.6,29.99,SW,233,10.0,13.0,86,0.00,,---,0.00,VWS V14.01,2013-04-14 10:20:00,
2013-04-14 06:25:00,44.6,40.4,29.99,WSW,240,4.0,7.0,85,0.00,,---,0.00,VWS V14.01,2013-04-14 10:25:00,
2013-04-14 06:30:00,44.6,40.4,29.99,WSW,247,2.0,7.0,85,0.00,,---,0.00,VWS V14.01,2013-04-14 10:30:00,
2013-04-14 06:35:00,44.6,40.4,29.99,WSW,247,7.0,7.0,85,0.00,,---,0.00,VWS V14.01,2013-04-14 10:35:00,
2013-04-14 06:40:00,44.6,40.4,29.99,WSW,247,5.0,5.0,85,0.00,,---,0.00,VWS V14.01,2013-04-14 10:40:00,
2013-04-14 06:46:00,44.6,40.4,29.99,WSW,247,3.0,6.0,85,0.00,,---,0.00,VWS V14.01,2013-04-14 10:46:00,
2013-04-14 06:51:00,44.7,40.5,29.99,WSW,246,4.0,7.0,85,0.00,,---,0.00,VWS V14.01,2013-04-14 10:51:00,
2013-04-14 06:56:00,44.8,40.6,29.99,WSW,245,5.0,6.0,85,0.00,,---,0.00,VWS V14.01,2013-04-14 10:56:00,
2013-04-14 07:01:00,45.0,40.8,29.99,WSW,241,6.0,11.0,85,0.00,,---,0.00,VWS V14.01,2013-04-14 11:01:00,
2013-04-14 07:06:00,45.1,40.6,30.00,WSW,241,5.0,10.0,84,0.00,,---,0.00,VWS V14.01,2013-04-14 11:06:00,
2013-04-14 07:11:00,45.2,40.7,30.00,WSW,239,5.0,6.0,84,0.00,,---,0.00,VWS V14.01,2013-04-14 11:11:00,
2013-04-14 07:16:00,45.3,41.1,30.00,WSW,240,4.0,7.0,85,0.00,,---,0.00,VWS V14.01,2013-04-14 11:16:00,
2013-04-14 07:21:00,45.3,41.1,30.00,WSW,239,5.0,9.0,85,0.00,,---,0.00,VWS V14.01,2013-04-14 11:21:00,
2013-04-14 07:26:00,45.3,41.4,30.01,WSW,238,3.0,6.0,86,0.00,,---,0.00,VWS V14.01,2013-04-14 11:26:00,
2013-04-14 07:31:00,45.3,40.8,30.00,WSW,237,4.0,11.0,84,0.00,,---,0.00,VWS V14.01,2013-04-14 11:31:00,
2013-04-14 07:36:00,45.4,41.2,30.01,SW,235,2.0,6.0,85,0.00,,---,0.00,VWS V14.01,2013-04-14 11:36:00,
2013-04-14 07:41:00,45.5,41.0,30.01,SW,234,6.0,7.0,84,0.00,,---,0.00,VWS V14.01,2013-04-14 11:41:00,
2013-04-14 07:46:00,45.6,41.4,30.01,SW,231,1.0,5.0,85,0.00,,---,0.00,VWS V14.01,2013-04-14 11:46:00,
2013-04-14 07:51:00,45.7,42.1,30.01,SW,219,1.0,7.0,87,0.00,,---,0.00,VWS V14.01,2013-04-14 11:51:00,
2013-04-14 07:56:00,45.7,42.1,30.01,SW,223,5.0,9.0,87,0.00,,---,0.00,VWS V14.01,2013-04-14 11:56:00,
2013-04-14 08:01:00,45.7,42.1,30.01,SW,229,4.0,4.0,87,0.00,,---,0.00,VWS V14.01,2013-04-14 12:01:00,
2013-04-14 08:06:00,45.7,42.4,30.01,SW,218,6.0,9.0,88,0.00,,---,0.00,VWS V14.01,2013-04-14 12:06:00,
2013-04-14 08:11:00,45.6,42.3,30.01,SW,224,6.0,12.0,88,0.00,,---,0.00,VWS V14.01,2013-04-14 12:11:00,
2013-04-14 08:16:00,45.5,41.9,30.01,SW,231,8.0,12.0,87,0.00,,---,0.00,VWS V14.01,2013-04-14 12:16:00,
2013-04-14 08:21:00,45.6,42.0,30.02,SW,234,9.0,14.0,87,0.00,,---,0.00,VWS V14.01,2013-04-14 12:21:00,
2013-04-14 08:26:00,45.8,41.9,30.02,WSW,239,5.0,10.0,86,0.00,,---,0.00,VWS V14.01,2013-04-14 12:26:00,
2013-04-14 08:31:00,46.0,41.8,30.02,WSW,237,10.0,13.0,85,0.00,,---,0.00,VWS V14.01,2013-04-14 12:31:00,
2013-04-14 08:36:00,46.3,41.7,30.02,WSW,241,7.0,10.0,84,0.00,,---,0.00,VWS V14.01,2013-04-14 12:36:00,
2013-04-14 08:41:00,46.6,41.4,30.02,WSW,237,10.0,11.0,82,0.00,,---,0.00,VWS V14.01,2013-04-14 12:41:00,
2013-04-14 08:46:00,46.9,41.4,30.02,WSW,239,11.0,11.0,81,0.00,,---,0.00,VWS V14.01,2013-04-14 12:46:00,
2013-04-14 08:51:00,47.2,41.4,30.02,WSW,245,4.0,9.0,80,0.00,,---,0.00,VWS V14.01,2013-04-14 12:51:00,
2013-04-14 08:56:00,47.6,41.8,30.02,WSW,246,5.0,6.0,80,0.00,,---,0.00,VWS V14.01,2013-04-14 12:56:00,
2013-04-14 09:01:00,47.9,41.4,30.02,WSW,245,5.0,8.0,78,0.00,,---,0.00,VWS V14.01,2013-04-14 13:01:00,
2013-04-14 09:07:00,48.2,41.3,30.02,WSW,254,6.0,8.0,77,0.00,,---,0.00,VWS V14.01,2013-04-14 13:07:00,
2013-04-14 09:12:00,48.7,41.1,30.02,WSW,252,3.0,11.0,75,0.00,,---,0.00,VWS V14.01,2013-04-14 13:12:00,
2013-04-14 09:17:00,49.3,41.4,30.02,WSW,246,4.0,11.0,74,0.00,,---,0.00,VWS V14.01,2013-04-14 13:17:00,
2013-04-14 09:22:00,49.9,41.2,30.02,West,266,4.0,12.0,72,0.00,,---,0.00,VWS V14.01,2013-04-14 13:22:00,
2013-04-14 09:27:00,50.4,40.6,30.02,WSW,258,1.0,12.0,69,0.00,,---,0.00,VWS V14.01,2013-04-14 13:27:00,
2013-04-14 09:32:00,50.8,40.2,30.02,West,262,3.0,9.0,67,0.00,,---,0.00,VWS V14.01,2013-04-14 13:32:00,
2013-04-14 09:37:00,51.0,40.4,30.02,WSW,251,11.0,11.0,67,0.00,,---,0.00,VWS V14.01,2013-04-14 13:37:00,
2013-04-14 09:42:00,51.3,40.0,30.02,WSW,250,2.0,11.0,65,0.00,,---,0.00,VWS V14.01,2013-04-14 13:42:00,
2013-04-14 09:47:00,51.9,39.3,30.01,WSW,256,4.0,13.0,62,0.00,,---,0.00,VWS V14.01,2013-04-14 13:47:00,
2013-04-14 09:52:00,52.2,39.6,30.02,West,260,10.0,10.0,62,0.00,,---,0.00,VWS V14.01,2013-04-14 13:52:00,
2013-04-14 09:57:00,52.3,38.8,30.02,WSW,256,3.0,12.0,60,0.00,,---,0.00,VWS V14.01,2013-04-14 13:57:00,
2013-04-14 10:02:00,52.1,38.7,30.02,WSW,251,5.0,15.0,60,0.00,,---,0.00,VWS V14.01,2013-04-14 14:02:00,
2013-04-14 10:07:00,52.2,39.6,30.02,WSW,242,12.0,12.0,62,0.00,,---,0.00,VWS V14.01,2013-04-14 14:07:00,
2013-04-14 10:12:00,52.3,38.8,30.02,WSW,247,13.0,13.0,60,0.00,,---,0.00,VWS V14.01,2013-04-14 14:12:00,
2013-04-14 10:17:00,52.3,41.3,30.02,SSW,210,3.0,13.0,66,0.00,,---,0.00,VWS V14.01,2013-04-14 14:17:00,
2013-04-14 10:22:00,50.9,42.6,30.02,SSW,208,4.0,10.0,73,0.00,,---,0.00,VWS V14.01,2013-04-14 14:22:00,
2013-04-14 10:27:00,49.5,42.6,30.02,SW,224,6.0,11.0,77,0.00,,---,0.00,VWS V14.01,2013-04-14 14:27:00,
2013-04-14 10:32:00,48.5,43.0,30.02,SSW,196,5.0,6.0,81,0.00,,---,0.00,VWS V14.01,2013-04-14 14:32:00,
2013-04-14 10:37:00,48.1,43.2,30.02,SW,218,9.0,11.0,83,0.00,,---,0.00,VWS V14.01,2013-04-14 14:37:00,
2013-04-14 10:42:00,48.4,43.2,30.02,SW,218,11.0,13.0,82,0.00,,---,0.00,VWS V14.01,2013-04-14 14:42:00,
2013-04-14 10:47:00,49.0,43.4,30.02,SW,235,5.0,14.0,81,0.00,,---,0.00,VWS V14.01,2013-04-14 14:47:00,
2013-04-14 10:52:00,49.3,43.4,30.02,SW,221,4.0,10.0,80,0.00,,---,0.00,VWS V14.01,2013-04-14 14:52:00,
2013-04-14 10:57:00,48.9,43.3,30.02,SSW,209,3.0,9.0,81,0.00,,---,0.00,VWS V14.01,2013-04-14 14:57:00,
2013-04-14 11:02:00,48.9,43.7,30.02,SW,218,3.0,7.0,82,0.00,,---,0.00,VWS V14.01,2013-04-14 15:02:00,
2013-04-14 11:07:00,49.3,43.4,30.02,SSW,203,4.0,9.0,80,0.00,,---,0.00,VWS V14.01,2013-04-14 15:07:00,
2013-04-14 11:12:00,49.2,43.6,30.02,SSW,206,4.0,11.0,81,0.00,,---,0.00,VWS V14.01,2013-04-14 15:12:00,
2013-04-14 11:17:00,48.8,43.2,30.02,SSW,195,4.0,11.0,81,0.00,,---,0.00,VWS V14.01,2013-04-14 15:17:00,
2013-04-14 11:22:00,48.8,43.2,30.02,South,187,2.0,7.0,81,0.00,,---,0.00,VWS V14.01,2013-04-14 15:22:00,
2013-04-14 11:27:00,48.6,42.7,30.01,SW,216,3.0,14.0,80,0.00,,---,0.00,VWS V14.01,2013-04-14 15:27:00,
2013-04-14 11:32:00,48.4,43.2,30.01,SSW,204,4.0,13.0,82,0.00,,---,0.00,VWS V14.01,2013-04-14 15:32:00,
2013-04-14 11:37:00,47.9,42.7,30.01,SSW,212,6.0,15.0,82,0.00,,---,0.00,VWS V14.01,2013-04-14 15:37:00,
2013-04-14 11:42:00,47.4,42.5,30.01,South,176,7.0,11.0,83,0.00,,---,0.00,VWS V14.01,2013-04-14 15:42:00,
2013-04-14 11:48:00,47.3,42.7,30.01,SSW,212,7.0,14.0,84,0.00,,---,0.00,VWS V14.01,2013-04-14 15:48:00,
2013-04-14 11:53:00,46.9,42.3,30.01,SSW,202,6.0,16.0,84,0.00,,---,0.00,VWS V14.01,2013-04-14 15:53:00,
2013-04-14 11:58:00,46.6,42.3,30.02,South,191,3.0,14.0,85,0.00,,---,0.00,VWS V14.01,2013-04-14 15:58:00,
2013-04-14 12:03:00,46.4,42.5,30.01,SSW,211,4.0,17.0,86,0.00,,---,0.00,VWS V14.01,2013-04-14 16:03:00,
2013-04-14 12:08:00,46.3,42.7,30.01,South,189,4.0,15.0,87,0.00,,---,0.00,VWS V14.01,2013-04-14 16:08:00,
2013-04-14 12:13:00,46.4,41.8,30.02,SW,214,9.0,24.0,84,0.01,,---,0.01,VWS V14.01,2013-04-14 16:13:00,
2013-04-14 12:18:00,46.3,42.7,30.02,SSW,209,4.0,13.0,87,0.01,,---,0.01,VWS V14.01,2013-04-14 16:18:00,
2013-04-14 12:23:00,46.3,42.3,30.02,WSW,237,9.0,18.0,86,0.01,,---,0.01,VWS V14.01,2013-04-14 16:23:00,
2013-04-14 12:28:00,46.5,41.9,30.02,WSW,252,9.0,15.0,84,0.01,,---,0.01,VWS V14.01,2013-04-14 16:28:00,
2013-04-14 12:33:00,47.0,42.1,30.02,SW,227,7.0,12.0,83,0.01,,---,0.01,VWS V14.01,2013-04-14 16:33:00,
2013-04-14 12:38:00,47.5,42.0,30.02,SW,232,10.0,13.0,81,0.01,,---,0.01,VWS V14.01,2013-04-14 16:38:00,
2013-04-14 12:43:00,47.8,42.3,30.02,WSW,247,7.0,15.0,81,0.01,,---,0.01,VWS V14.01,2013-04-14 16:43:00,
2013-04-14 12:48:00,48.0,42.1,30.01,WSW,258,5.0,14.0,80,0.01,,---,0.01,VWS V14.01,2013-04-14 16:48:00,
2013-04-14 12:53:00,48.4,41.9,30.01,NNW,328,6.0,11.0,78,0.01,,---,0.01,VWS V14.01,2013-04-14 16:53:00,
2013-04-14 12:58:00,48.9,42.7,30.01,WNW,302,11.0,11.0,79,0.01,,---,0.01,VWS V14.01,2013-04-14 16:58:00,
2013-04-14 13:03:00,49.5,40.9,30.02,NW,308,4.0,15.0,72,0.01,,---,0.01,VWS V14.01,2013-04-14 17:03:00,
2013-04-14 13:08:00,50.3,39.8,30.02,West,281,3.0,16.0,67,0.01,,---,0.01,VWS V14.01,2013-04-14 17:08:00,
2013-04-14 13:13:00,50.8,39.5,30.02,WNW,282,3.0,11.0,65,0.00,,---,0.01,VWS V14.01,2013-04-14 17:13:00,
2013-04-14 13:18:00,51.7,40.3,30.02,NW,305,6.0,15.0,65,0.00,,---,0.01,VWS V14.01,2013-04-14 17:18:00,
2013-04-14 13:23:00,52.0,38.6,30.02,NW,306,11.0,12.0,60,0.00,,---,0.01,VWS V14.01,2013-04-14 17:23:00,
2013-04-14 13:28:00,51.6,38.2,30.03,WNW,283,3.0,11.0,60,0.00,,---,0.01,VWS V14.01,2013-04-14 17:28:00,
2013-04-14 13:33:00,51.3,38.3,30.03,NW,307,3.0,11.0,61,0.00,,---,0.01,VWS V14.01,2013-04-14 17:33:00,
2013-04-14 13:38:00,51.2,38.2,30.03,WNW,284,7.0,7.0,61,0.00,,---,0.01,VWS V14.01,2013-04-14 17:38:00,
2013-04-14 13:43:00,51.4,37.6,30.03,West,270,9.0,11.0,59,0.00,,---,0.01,VWS V14.01,2013-04-14 17:43:00,
2013-04-14 13:48:00,51.9,38.0,30.03,West,260,2.0,13.0,59,0.00,,---,0.01,VWS V14.01,2013-04-14 17:48:00,
2013-04-14 13:53:00,52.7,37.5,30.03,WNW,295,5.0,12.0,56,0.00,,---,0.01,VWS V14.01,2013-04-14 17:53:00,
2013-04-14 13:58:00,53.5,37.8,30.02,WNW,297,2.0,14.0,55,0.00,,---,0.01,VWS V14.01,2013-04-14 17:58:00,
2013-04-14 14:03:00,53.8,37.6,30.02,WNW,302,4.0,12.0,54,0.00,,---,0.01,VWS V14.01,2013-04-14 18:03:00,
2013-04-14 14:08:00,54.3,38.0,30.02,WNW,294,6.0,13.0,54,0.00,,---,0.01,VWS V14.01,2013-04-14 18:08:00,
2013-04-14 14:13:00,54.5,37.2,30.02,West,276,3.0,12.0,52,0.00,,---,0.01,VWS V14.01,2013-04-14 18:13:00,
2013-04-14 14:18:00,54.4,36.7,30.02,WNW,284,2.0,14.0,51,0.00,,---,0.01,VWS V14.01,2013-04-14 18:18:00,
2013-04-14 14:23:00,54.3,35.6,30.02,West,266,5.0,17.0,49,0.00,,---,0.01,VWS V14.01,2013-04-14 18:23:00,
2013-04-14 14:28:00,53.6,34.9,30.02,West,278,4.0,14.0,49,0.00,,---,0.01,VWS V14.01,2013-04-14 18:28:00,
2013-04-14 14:33:00,53.0,34.4,30.02,NW,308,11.0,13.0,49,0.00,,---,0.01,VWS V14.01,2013-04-14 18:33:00,
2013-04-14 14:38:00,52.6,34.0,30.02,West,266,7.0,13.0,49,0.00,,---,0.01,VWS V14.01,2013-04-14 18:38:00,
2013-04-14 14:43:00,52.5,34.4,30.03,West,270,8.0,12.0,50,0.00,,---,0.01,VWS V14.01,2013-04-14 18:43:00,
2013-04-14 14:48:00,52.4,34.3,30.02,West,275,1.0,14.0,50,0.00,,---,0.01,VWS V14.01,2013-04-14 18:48:00,
2013-04-14 14:53:00,52.3,34.7,30.03,West,273,3.0,13.0,51,0.00,,---,0.01,VWS V14.01,2013-04-14 18:53:00,
2013-04-14 14:58:00,52.3,35.2,30.03,NW,317,5.0,10.0,52,0.00,,---,0.01,VWS V14.01,2013-04-14 18:58:00,
2013-04-14 15:03:00,52.2,33.6,30.03,West,269,5.0,13.0,49,0.00,,---,0.01,VWS V14.01,2013-04-14 19:03:00,
2013-04-14 15:08:00,52.1,33.0,30.03,WNW,295,3.0,15.0,48,0.00,,---,0.01,VWS V14.01,2013-04-14 19:08:00,
2013-04-14 15:13:00,52.3,33.7,30.03,NW,320,11.0,15.0,49,0.00,,---,0.01,VWS V14.01,2013-04-14 19:13:00,
2013-04-14 15:18:00,52.4,33.3,30.03,WNW,301,1.0,15.0,48,0.00,,---,0.01,VWS V14.01,2013-04-14 19:18:00,
2013-04-14 15:23:00,52.3,32.2,30.03,West,281,2.0,16.0,46,0.00,,---,0.01,VWS V14.01,2013-04-14 19:23:00,
2013-04-14 15:28:00,52.6,33.0,30.02,NNW,343,7.0,18.0,47,0.00,,---,0.01,VWS V14.01,2013-04-14 19:28:00,
2013-04-14 15:33:00,53.4,33.7,30.02,West,264,3.0,14.0,47,0.00,,---,0.01,VWS V14.01,2013-04-14 19:33:00,
2013-04-14 15:38:00,53.7,32.9,30.03,West,265,11.0,15.0,45,0.00,,---,0.01,VWS V14.01,2013-04-14 19:38:00,
2013-04-14 15:43:00,53.2,32.4,30.03,WNW,299,3.0,13.0,45,0.00,,---,0.01,VWS V14.01,2013-04-14 19:43:00,
2013-04-14 15:48:00,53.1,33.4,30.03,West,278,7.0,12.0,47,0.00,,---,0.01,VWS V14.01,2013-04-14 19:48:00,
2013-04-14 15:53:00,53.5,33.2,30.03,West,280,5.0,20.0,46,0.00,,---,0.01,VWS V14.01,2013-04-14 19:53:00,
2013-04-14 15:58:00,53.7,32.9,30.03,West,261,7.0,14.0,45,0.00,,---,0.01,VWS V14.01,2013-04-14 19:58:00,
2013-04-14 16:04:00,53.4,31.5,30.03,NW,308,11.0,14.0,43,0.00,,---,0.01,VWS V14.01,2013-04-14 20:04:00,
2013-04-14 16:09:00,53.4,31.5,30.03,West,265,10.0,15.0,43,0.00,,---,0.01,VWS V14.01,2013-04-14 20:09:00,
2013-04-14 16:14:00,53.5,31.6,30.03,West,280,15.0,17.0,43,0.00,,---,0.01,VWS V14.01,2013-04-14 20:14:00,
2013-04-14 16:19:00,53.4,31.5,30.03,WNW,289,10.0,19.0,43,0.00,,---,0.01,VWS V14.01,2013-04-14 20:19:00,
2013-04-14 16:24:00,53.8,31.3,30.03,NW,305,10.0,18.0,42,0.00,,---,0.01,VWS V14.01,2013-04-14 20:24:00,
2013-04-14 16:29:00,53.9,31.4,30.03,West,272,10.0,17.0,42,0.00,,---,0.01,VWS V14.01,2013-04-14 20:29:00,
2013-04-14 16:34:00,53.7,31.2,30.03,WNW,285,2.0,20.0,42,0.00,,---,0.01,VWS V14.01,2013-04-14 20:34:00,
2013-04-14 16:39:00,53.5,31.0,30.03,WNW,283,6.0,22.0,42,0.00,,---,0.01,VWS V14.01,2013-04-14 20:39:00,
2013-04-14 16:44:00,53.5,31.0,30.04,West,262,8.0,15.0,42,0.00,,---,0.01,VWS V14.01,2013-04-14 20:44:00,
2013-04-14 16:49:00,53.5,31.0,30.04,WNW,283,4.0,14.0,42,0.00,,---,0.01,VWS V14.01,2013-04-14 20:49:00,
2013-04-14 16:54:00,53.6,31.1,30.04,WNW,292,7.0,15.0,42,0.00,,---,0.01,VWS V14.01,2013-04-14 20:54:00,
2013-04-14 16:59:00,53.0,30.0,30.04,NW,304,0.0,18.0,41,0.00,,---,0.01,VWS V14.01,2013-04-14 20:59:00,
2013-04-14 17:04:00,53.3,31.4,30.05,WNW,296,6.0,15.0,43,0.00,,---,0.01,VWS V14.01,2013-04-14 21:04:00,
2013-04-14 17:09:00,53.1,30.6,30.05,West,270,7.0,15.0,42,0.00,,---,0.01,VWS V14.01,2013-04-14 21:09:00,
2013-04-14 17:14:00,52.5,29.5,30.05,NW,314,6.0,13.0,41,0.00,,---,0.01,VWS V14.01,2013-04-14 21:14:00,
2013-04-14 17:19:00,52.5,29.5,30.05,NW,307,10.0,16.0,41,0.00,,---,0.01,VWS V14.01,2013-04-14 21:19:00,
2013-04-14 17:24:00,52.3,28.1,30.05,NW,310,2.0,15.0,39,0.00,,---,0.01,VWS V14.01,2013-04-14 21:24:00,
2013-04-14 17:29:00,52.1,28.5,30.06,West,272,3.0,15.0,40,0.00,,---,0.01,VWS V14.01,2013-04-14 21:29:00,
2013-04-14 17:34:00,52.0,31.3,30.06,WNW,301,4.0,10.0,45,0.00,,---,0.01,VWS V14.01,2013-04-14 21:34:00,
2013-04-14 17:39:00,51.9,30.1,30.07,NW,308,15.0,16.0,43,0.00,,---,0.01,VWS V14.01,2013-04-14 21:39:00,
2013-04-14 17:44:00,51.8,29.5,30.07,West,278,7.0,14.0,42,0.00,,---,0.01,VWS V14.01,2013-04-14 21:44:00,
2013-04-14 17:49:00,52.0,30.2,30.07,NW,319,6.0,16.0,43,0.00,,---,0.01,VWS V14.01,2013-04-14 21:49:00,
2013-04-14 17:54:00,52.0,29.0,30.07,NW,312,10.0,16.0,41,0.00,,---,0.01,VWS V14.01,2013-04-14 21:54:00,
2013-04-14 17:59:00,52.0,29.0,30.08,WNW,288,0.0,11.0,41,0.00,,---,0.01,VWS V14.01,2013-04-14 21:59:00,
2013-04-14 18:04:00,52.0,28.5,30.08,WNW,297,15.0,18.0,40,0.00,,---,0.01,VWS V14.01,2013-04-14 22:04:00,
2013-04-14 18:09:00,51.8,28.3,30.09,NW,322,6.0,17.0,40,0.00,,---,0.01,VWS V14.01,2013-04-14 22:09:00,
2013-04-14 18:14:00,51.9,29.0,30.09,West,278,9.0,16.0,41,0.00,,---,0.01,VWS V14.01,2013-04-14 22:14:00,
2013-04-14 18:19:00,51.7,28.8,30.09,NW,315,3.0,18.0,41,0.00,,---,0.01,VWS V14.01,2013-04-14 22:19:00,
2013-04-14 18:24:00,51.7,28.2,30.09,WNW,295,5.0,14.0,40,0.00,,---,0.01,VWS V14.01,2013-04-14 22:24:00,
2013-04-14 18:29:00,51.5,29.2,30.09,NW,315,11.0,19.0,42,0.00,,---,0.01,VWS V14.01,2013-04-14 22:29:00,
2013-04-14 18:34:00,51.4,30.8,30.10,West,272,9.0,11.0,45,0.00,,---,0.01,VWS V14.01,2013-04-14 22:34:00,
2013-04-14 18:39:00,51.0,29.9,30.10,NNW,345,13.0,14.0,44,0.00,,---,0.01,VWS V14.01,2013-04-14 22:39:00,
2013-04-14 18:44:00,50.8,29.7,30.10,NW,312,6.0,13.0,44,0.00,,---,0.01,VWS V14.01,2013-04-14 22:44:00,
2013-04-14 18:49:00,50.5,27.1,30.10,WNW,300,3.0,19.0,40,0.00,,---,0.01,VWS V14.01,2013-04-14 22:49:00,
2013-04-14 18:54:00,50.2,28.0,30.10,West,272,6.0,20.0,42,0.00,,---,0.01,VWS V14.01,2013-04-14 22:54:00,
2013-04-14 18:59:00,50.0,28.4,30.10,West,261,10.0,19.0,43,0.00,,---,0.01,VWS V14.01,2013-04-14 22:59:00,
2013-04-14 19:04:00,49.7,28.7,30.11,WNW,291,6.0,14.0,44,0.00,,---,0.01,VWS V14.01,2013-04-14 23:04:00,
2013-04-14 19:09:00,49.5,29.1,30.11,NW,307,13.0,20.0,45,0.00,,---,0.01,VWS V14.01,2013-04-14 23:09:00,
2013-04-14 19:14:00,49.2,28.2,30.11,WNW,300,4.0,14.0,44,0.00,,---,0.01,VWS V14.01,2013-04-14 23:14:00,
2013-04-14 19:19:00,49.0,29.1,30.12,NW,324,8.0,11.0,46,0.00,,---,0.01,VWS V14.01,2013-04-14 23:19:00,
2013-04-14 19:24:00,48.9,28.5,30.12,WNW,293,9.0,16.0,45,0.00,,---,0.01,VWS V14.01,2013-04-14 23:24:00,
2013-04-14 19:29:00,48.7,29.4,30.13,WNW,301,8.0,17.0,47,0.00,,---,0.01,VWS V14.01,2013-04-14 23:29:00,
2013-04-14 19:34:00,48.5,28.7,30.13,WNW,285,10.0,14.0,46,0.00,,---,0.01,VWS V14.01,2013-04-14 23:34:00,
2013-04-14 19:39:00,48.4,29.6,30.14,NW,315,5.0,11.0,48,0.00,,---,0.01,VWS V14.01,2013-04-14 23:39:00,
2013-04-14 19:44:00,48.3,29.5,30.14,NNW,338,3.0,10.0,48,0.00,,---,0.01,VWS V14.01,2013-04-14 23:44:00,
2013-04-14 19:49:00,48.1,29.9,30.14,NW,311,4.0,13.0,49,0.00,,---,0.01,VWS V14.01,2013-04-14 23:49:00,
2013-04-14 19:54:00,47.9,29.7,30.14,NW,310,5.0,10.0,49,0.00,,---,0.01,VWS V14.01,2013-04-14 23:54:00,
2013-04-14 19:59:00,47.8,29.1,30.15,WNW,291,4.0,9.0,48,0.00,,---,0.01,VWS V14.01,2013-04-14 23:59:00,
2013-04-14 20:04:00,47.6,28.9,30.15,NW,307,5.0,7.0,48,0.00,,---,0.01,VWS V14.01,2013-04-15 00:04:00,
2013-04-14 20:09:00,47.5,29.3,30.15,NW,310,4.0,10.0,49,0.00,,---,0.01,VWS V14.01,2013-04-15 00:09:00,
2013-04-14 20:14:00,47.5,29.3,30.16,WNW,300,5.0,13.0,49,0.00,,---,0.01,VWS V14.01,2013-04-15 00:14:00,
2013-04-14 20:19:00,47.5,28.8,30.16,NW,307,4.0,12.0,48,0.00,,---,0.01,VWS V14.01,2013-04-15 00:19:00,
2013-04-14 20:24:00,47.5,28.3,30.16,WNW,303,6.0,12.0,47,0.00,,---,0.01,VWS V14.01,2013-04-15 00:24:00,
2013-04-14 20:29:00,47.3,28.6,30.17,NW,313,1.0,9.0,48,0.00,,---,0.01,VWS V14.01,2013-04-15 00:29:00,
2013-04-14 20:34:00,47.2,29.5,30.17,NW,307,4.0,10.0,50,0.00,,---,0.01,VWS V14.01,2013-04-15 00:34:00,
2013-04-14 20:39:00,47.0,29.8,30.18,WNW,297,5.0,13.0,51,0.00,,---,0.01,VWS V14.01,2013-04-15 00:39:00,
2013-04-14 20:44:00,46.9,30.7,30.18,NW,308,9.0,10.0,53,0.00,,---,0.01,VWS V14.01,2013-04-15 00:44:00,
2013-04-14 20:49:00,46.7,30.5,30.19,NW,313,3.0,10.0,53,0.00,,---,0.01,VWS V14.01,2013-04-15 00:49:00,
2013-04-14 20:54:00,46.5,29.8,30.19,NW,304,3.0,10.0,52,0.00,,---,0.01,VWS V14.01,2013-04-15 00:54:00,
2013-04-14 21:00:00,46.4,30.2,30.19,NW,319,1.0,11.0,53,0.00,,---,0.01,VWS V14.01,2013-04-15 01:00:00,
2013-04-14 21:05:00,46.3,29.6,30.20,WNW,300,4.0,11.0,52,0.00,,---,0.01,VWS V14.01,2013-04-15 01:05:00,
2013-04-14 21:10:00,46.1,29.5,30.20,NW,310,5.0,9.0,52,0.00,,---,0.01,VWS V14.01,2013-04-15 01:10:00,
2013-04-14 21:15:00,46.0,28.4,30.21,NW,310,5.0,13.0,50,0.00,,---,0.01,VWS V14.01,2013-04-15 01:15:00,
2013-04-14 21:20:00,46.0,28.9,30.21,NW,315,6.0,11.0,51,0.00,,---,0.01,VWS V14.01,2013-04-15 01:20:00,
2013-04-14 21:25:00,45.9,28.8,30.21,NW,306,3.0,12.0,51,0.00,,---,0.01,VWS V14.01,2013-04-15 01:25:00,
2013-04-14 21:30:00,45.8,29.2,30.21,NNW,335,5.0,12.0,52,0.00,,---,0.01,VWS V14.01,2013-04-15 01:30:00,
2013-04-14 21:35:00,45.7,29.6,30.22,NW,321,3.0,11.0,53,0.00,,---,0.01,VWS V14.01,2013-04-15 01:35:00,
2013-04-14 21:40:00,45.5,29.8,30.21,NW,320,5.0,7.0,54,0.00,,---,0.01,VWS V14.01,2013-04-15 01:40:00,
2013-04-14 21:45:00,45.4,29.3,30.22,NW,323,4.0,10.0,53,0.00,,---,0.01,VWS V14.01,2013-04-15 01:45:00,
2013-04-14 21:50:00,45.3,28.2,30.22,WNW,303,4.0,12.0,51,0.00,,---,0.01,VWS V14.01,2013-04-15 01:50:00,
2013-04-14 21:55:00,45.2,28.6,30.22,NW,311,4.0,12.0,52,0.00,,---,0.01,VWS V14.01,2013-04-15 01:55:00,
2013-04-14 22:00:00,45.1,28.1,30.22,NW,321,5.0,12.0,51,0.00,,---,0.01,VWS V14.01,2013-04-15 02:00:00,
2013-04-14 22:05:00,44.9,28.8,30.21,WNW,301,6.0,9.0,53,0.00,,---,0.01,VWS V14.01,2013-04-15 02:05:00,
2013-04-14 22:10:00,44.8,28.7,30.21,WNW,301,3.0,9.0,53,0.00,,---,0.01,VWS V14.01,2013-04-15 02:10:00,
2013-04-14 22:15:00,44.7,29.1,30.22,WNW,293,4.0,4.0,54,0.00,,---,0.01,VWS V14.01,2013-04-15 02:15:00,
2013-04-14 22:20:00,44.6,29.0,30.22,NW,308,2.0,3.0,54,0.00,,---,0.01,VWS V14.01,2013-04-15 02:20:00,
2013-04-14 22:25:00,44.4,29.3,30.22,WNW,296,1.0,6.0,55,0.00,,---,0.01,VWS V14.01,2013-04-15 02:25:00,
2013-04-14 22:30:00,44.2,28.6,30.22,WNW,288,3.0,7.0,54,0.00,,---,0.01,VWS V14.01,2013-04-15 02:30:00,
2013-04-14 22:35:00,44.0,28.9,30.21,WNW,287,5.0,5.0,55,0.00,,---,0.01,VWS V14.01,2013-04-15 02:35:00,
2013-04-14 22:40:00,43.8,29.1,30.22,WNW,298,5.0,6.0,56,0.00,,---,0.01,VWS V14.01,2013-04-15 02:40:00,
2013-04-14 22:45:00,43.6,29.0,30.22,WNW,291,3.0,7.0,56,0.00,,---,0.01,VWS V14.01,2013-04-15 02:45:00,
2013-04-14 22:50:00,43.6,29.4,30.22,WNW,293,3.0,3.0,57,0.00,,---,0.01,VWS V14.01,2013-04-15 02:50:00,
2013-04-14 22:55:00,43.5,29.7,30.22,WNW,291,3.0,6.0,58,0.00,,---,0.01,VWS V14.01,2013-04-15 02:55:00,
2013-04-14 23:00:00,43.4,30.0,30.22,WNW,291,2.0,2.0,59,0.00,,---,0.01,VWS V14.01,2013-04-15 03:00:00,
2013-04-14 23:05:00,43.2,29.9,30.22,WNW,293,2.0,2.0,59,0.00,,---,0.01,VWS V14.01,2013-04-15 03:05:00,
2013-04-14 23:10:00,43.0,30.1,30.23,WNW,286,0.0,1.0,60,0.00,,---,0.01,VWS V14.01,2013-04-15 03:10:00,
2013-04-14 23:15:00,42.9,30.4,30.23,West,278,0.0,0.0,61,0.00,,---,0.01,VWS V14.01,2013-04-15 03:15:00,
2013-04-14 23:20:00,42.7,30.6,30.23,West,274,2.0,3.0,62,0.00,,---,0.01,VWS V14.01,2013-04-15 03:20:00,
2013-04-14 23:25:00,42.7,30.6,30.23,West,278,4.0,4.0,62,0.00,,---,0.01,VWS V14.01,2013-04-15 03:25:00,
2013-04-14 23:30:00,42.6,30.5,30.23,West,279,1.0,1.0,62,0.00,,---,0.01,VWS V14.01,2013-04-15 03:30:00,
2013-04-14 23:35:00,42.6,30.1,30.23,West,260,1.0,2.0,61,0.00,,---,0.01,VWS V14.01,2013-04-15 03:35:00,
2013-04-14 23:40:00,42.6,30.5,30.24,West,262,4.0,4.0,62,0.00,,---,0.01,VWS V14.01,2013-04-15 03:40:00,
2013-04-14 23:45:00,42.6,30.5,30.24,West,265,4.0,4.0,62,0.00,,---,0.01,VWS V14.01,2013-04-15 03:45:00,
2013-04-14 23:50:00,42.5,30.4,30.24,West,269,2.0,4.0,62,0.00,,---,0.01,VWS V14.01,2013-04-15 03:50:00,
2013-04-14 23:55:00,42.5,30.4,30.24,WNW,283,3.0,5.0,62,0.00,,---,0.01,VWS V14.01,2013-04-15 03:55:00,